Location: Fours
(44.3167°N, 6.7000°E)
Time: 01:43:46
(UTC+00:00)

USA 215 - Pass Details

Date: 16 October 2021
Orbit: 1099 x 1109 km, 123.0° (Epoch: 20 November)

Event Time Altitude Azimuth Distance (km) Brightness Sun altitude
Exits shadow 19:42:15 30° 22° (NNE) 1,866 4.4 -31.7°
Maximum altitude 19:43:03 31° 9° (N) 1,836 4.4 -31.9°
Drops below altitude 10° 19:48:36 10° 311° (NW) 2,966 6.3 -32.8°
Sets 19:51:22 0° 301° (WNW) 3,926 7.2 -33.2°
